Weather WX

World > North America > United States > Michigan

Harbor Beach, Michigan Regional Weather

Lat: 43.85N, Lon: 82.65W
Wx Zone: MIZ049
Warning FLW WEATHER ALERT - (More Info. Click Here) Warning
Feedback

Harbor Beach, MI Regional Weather

Expires:201907160900;;718617
ASUS43 KDTX 160810
RWRMI 
MICHIGAN HOURLY REGIONAL WEATHER ROUNDUP
NATIONAL WEATHER SERVICE DETROIT/PONTIAC MI
400 AM EDT TUE JUL 16 2019

NOTE: "FAIR" INDICATES FEW OR NO CLOUDS BELOW 12,000 FEET WITH NO
SIGNIFICANT WEATHER AND/OR OBSTRUCTION TO VISIBILITY.


MIZ047>049-052>055-059>063-066>070-074>076-081>083-160900-
SOUTHEAST LOWER MICHIGAN
  
CITY           SKY/WX    TMP DP  RH WIND       PRES   REMARKS
ADRIAN         MOCLDY    72  66  81 SW5       30.02F                  
ALMA           FAIR      75  63  64 SW6       29.96S                  
ANN ARBOR      FAIR      66  65  96 W3        29.99F                  
BAD AXE        FAIR      73  67  81 SW7       29.93F                  
CARO           FAIR      70  66  86 SW3       29.94F                  
DETROIT CITY   FAIR      76  68  76 W5        29.98F                  
DETROIT        MOCLDY    74  67  78 SW8       29.98F                  
FLINT          FAIR      72  66  81 SW7       29.97F                  
GROSSE ILE     FAIR      75  68  79 SW5       29.98F                  
HILLSDALE      FAIR      69  66  90 S3        30.02F                  
HOWELL         FAIR      72  63  72 W5        29.99S                  

CITY           SKY/WX    TMP DP  RH WIND       PRES   REMARKS
JACKSON        FAIR      69  66  90 SW3       30.01F                  
LAMBERTVILLE   FAIR     N/A N/A N/A SW5       30.01S                  
LANSING        FAIR      72  63  73 SW7       29.99S                  
LAPEER         FAIR      73  67  83 SW3       29.98S                  
MASON          FAIR      73  66  78 CALM      30.00R                  
MONROE         FAIR      73  72  97 W5        29.99F                  
PONTIAC        FAIR      72  67  84 CALM      29.97F                  
PORT HOPE        N/A     76  67  73 VRB7      29.90F                  
PORT HURON       N/A     70  68  94 S3        29.97F FOG              
TRI CITIES     FAIR      76  67  73 SW9       29.94F                  
MIDLAND        FAIR      78  64  62 SW10G17   29.92F                  
TROY           FAIR      72  67  86 CALM      30.00S                  
SAGINAW HB     FAIR      77  64  65 SW9       29.94S                  
$$

SKY/WX - Weather  TMP - Temperature  DP - Dew Point  RH - Relative Humidity
WIND - Wind Direction/Speed PRES - Barometric Pressure VSB - Visibility
WCI - Wind Chill Index E13G22 Wind - East Wind 13 mph/Gusts of 22 mph